Location: Newark
(45.2500°N, 7.5833°E)
Time: 15:01:26
(UTC+00:00)

A-11 Canister half - Visible Passes

Search period start: 27 January 2020 00:00
Search period end: 06 February 2020 00:00
Orbit: 1517 x 1683 km, 47.2° (Epoch: 26 January)

Date Brightness Start Highest point End Pass type
(mag) Time Alt. Az. Time Alt. Az. Time Alt. Az.
27 Jan 9.9 02:21:26 37° E 02:21:26 37° E 02:26:26 10° E visible
27 Jan 8.9 04:19:38 50° W 04:21:56 64° SSW 04:31:06 10° SE visible
27 Jan 10.1 06:18:45 10° W 06:25:28 23° SW 06:32:17 10° S visible
28 Jan 10.3 01:59:55 27° E 01:59:55 27° E 02:03:30 10° E visible
28 Jan 8.8 03:58:08 63° WSW 03:59:03 66° SSW 04:08:15 10° SE visible
28 Jan 10.0 05:56:21 12° W 06:02:40 25° SW 06:09:44 10° S visible
29 Jan 10.7 01:38:28 19° E 01:38:28 19° E 01:40:34 10° E visible
29 Jan 8.9 03:36:41 68° S 03:36:41 68° S 03:45:23 10° SE visible
29 Jan 9.9 05:34:54 17° W 05:39:52 26° SW 05:47:09 10° S visible
30 Jan 11.1 01:17:04 12° E 01:17:04 12° E 01:17:38 10° E visible
30 Jan 9.2 03:15:17 57° SSE 03:15:17 57° SSE 03:22:31 10° SE visible
30 Jan 9.8 05:13:30 22° W 05:17:04 28° SW 05:24:33 10° S visible
30 Jan 10.8 20:27:32 10° SSW 20:28:32 13° SSW 20:28:32 13° SSW visible
31 Jan 9.6 02:53:56 43° SE 02:53:56 43° SE 02:59:39 10° ESE visible
31 Jan 9.7 04:52:10 27° WSW 04:54:15 30° SW 05:01:56 10° S visible
31 Jan 10.5 20:04:49 10° SSW 20:07:32 19° S 20:07:32 19° S visible
01 Feb 10.1 02:32:39 31° SE 02:32:39 31° SE 02:36:47 10° ESE visible
01 Feb 9.6 04:30:53 32° SW 04:31:26 32° SW 04:39:18 10° SSE visible
01 Feb 10.1 19:42:07 10° SSW 19:46:31 25° S 19:46:31 25° S visible
02 Feb 10.5 02:11:25 21° ESE 02:11:25 21° ESE 02:13:53 10° ESE visible
02 Feb 9.6 04:09:40 33° SSW 04:09:40 33° SSW 04:16:38 10° SSE visible
02 Feb 9.9 19:19:26 10° SSW 19:25:30 29° SSE 19:25:30 29° SSE visible
02 Feb 10.8 21:21:58 10° WSW 21:23:45 17° WSW 21:23:45 17° WSW visible
03 Feb 10.9 01:50:15 13° ESE 01:50:15 13° ESE 01:51:01 10° ESE visible
03 Feb 9.8 03:48:29 30° SSW 03:48:29 30° SSW 03:53:56 10° SSE visible
03 Feb 9.7 18:56:46 10° S 19:04:27 30° SE 19:04:27 30° SE visible
03 Feb 10.3 20:59:04 10° SW 21:02:41 27° SW 21:02:41 27° SW visible
04 Feb 10.1 03:27:22 25° S 03:27:22 25° S 03:31:15 10° SSE visible
04 Feb 9.8 18:34:07 10° S 18:41:55 28° SE 18:43:22 27° ESE visible
04 Feb 9.8 20:36:10 10° SW 20:41:36 38° SW 20:41:36 38° SW visible
05 Feb 10.5 03:06:17 18° SSE 03:06:17 18° SSE 03:08:32 10° SSE visible
05 Feb 9.9 18:11:30 10° S 18:19:06 26° SE 18:22:14 22° ESE visible
05 Feb 9.3 20:13:17 10° SW 20:20:28 53° SSW 20:20:28 53° SSW visible
05 Feb 11.1 22:18:13 10° W 22:18:43 12° W 22:18:43 12° W visible
